Tracking 30696 objects as of 15-Jun-2025
HD Live streaming from Space Station
objects crossing your sky now

STARLINK-30848

Track STARLINK-30848 now!
10-day predictions
STARLINK-30848 is classified as:


NORAD ID: 58240
Int'l Code: 2023-171L
Perigee: 564.8 km
Apogee: 567.7 km
Inclination: 43.0 °
Period: 95.8 minutes
Semi major axis: 6937 km
RCS: Unknown
Launch date: November 8, 2023
Source: United States (US)
Launch site: AIR FORCE EASTERN TEST RANGE (AFETR)
Your satellite tracking list
Your tracking list is empty




NASA's NSSDC Master Catalog

Two Line Element Set (TLE):
1 58240U 23171L   25165.68079273 -.00000153  00000-0  37355-5 0  9992
2 58240  43.0055 303.6554 0002106 276.4119  83.6484 15.02535040 89390
Source of the keplerian elements: AFSPC